CYGFM04

Last updated on Tue Oct 21 2025 00:02:23 GMT+0000 (Coordinated Universal Time)

1 41885U 16078B 25293.57794136 .00028499 00000+0 54301-3 0 9998 2 41885 34.9368 9.8058 0008362 80.1027 280.0638 15.47156005491698
UTC large
Height (km)
Speed (km/s)
/
Latitude / Longitude
Inclination (degrees)
Orbital Period (minutes)
Azimuth
Elevation
Range (km)
Doppler Factor

Next 0 passes for location: London (51.5072 / 0.1276)

Sorry there are no passes over London.